Location: 10033 Water Well
(34.0865°N, 106.8959°W)
Time: 15:37:44
(UTC+00:00)

DELTA 2 R/B (1) - Pass Details

Date: 13 January 2026
Orbit: 786 x 800 km, 39.6° (Epoch: 10 February)

Event Time Altitude Azimuth Distance (km) Brightness Sun altitude
Rises 02:28:01 0° 239° (WSW) 3,273 7.8 -26.3°
Reaches altitude 10° 02:30:30 10° 237° (WSW) 2,343 6.8 -26.8°
Enters shadow 02:35:36 70° 190° (S) 837 3.6 -27.9°
